South St. Paul, MN

9:09 PM CST on February 18, 2018 (GMT -0600)
South Saint Paul Municipal-Fleming

Weather History for KSGS - December, 2012

Change the Weather History Date:

Monday, December 24, 2012

  Actual Average (KSTP) Record (KSTP)
Temperature  
Mean Temperature 14 °F -  
Max Temperature 19 °F 23 °F 42 °F (2006)
Min Temperature 8 °F 9 °F -11 °F (2000)
Degree Days  
Heating Degree Days 52    
Moisture  
Dew Point 7 °F    
Average Humidity 67    
Maximum Humidity 82    
Minimum Humidity 53    
Precipitation  
Precipitation 0.00 in - - ()
Sea Level Pressure  
Sea Level Pressure 30.10 in    
Wind  
Wind Speed 7 mph (North)    
Max Wind Speed 12 mph    
Max Gust Speed 10 mph    
Visibility 9 miles    
Events Snow    
Averages and records for this station are not official NWS values.
T = Trace of Precipitation, MM = Missing Value Source: NWS Daily Summary

Daily Weather History Graph

Daily Weather History Graph

Search for Another Location

Airport or City:

Trip Planner

Search our weather history database for the weather conditions in past years. The results will help you decide how hot, cold, wet, or windy it might be!

Date:

Astronomy

Dec. 24, 2012 Rise Set
Actual Time 7:48 AM CST 4:35 PM CST
Civil Twilight 7:14 AM CST 5:09 PM CST
Nautical Twilight 6:37 AM CST 5:46 PM CST
Astronomical Twilight 6:01 AM CST 6:22 PM CST
Moon 2:06 PM CST (12/24) 4:23 AM CST (12/24)
Length of Visible Light 9h 54m
Length of Day
8h 47m
Waxing Gibbous, 88% of the Moon is Illuminated
Dec 24
Waxing Gibbous
Dec 28
Full
Jan 4
Last Quarter
Jan 11
New
Jan 18
First Quarter

Hourly Weather History & Observations

Time (CST) Temp. Windchill Dew Point Humidity Pressure Visibility Wind Dir Wind Speed Gust Speed Precip Events Conditions
12:12 AM 18.5 °F 11.7 °F 9.0 °F 66% 30.01 in 10.0 mi NE 4.6 mph - N/A   Overcast
12:32 AM 18.5 °F 10.4 °F 9.0 °F 66% 30.02 in 10.0 mi NNE 5.8 mph - N/A   Overcast
12:52 AM 18.5 °F 10.4 °F 9.1 °F 67% 30.01 in 10.0 mi NNE 5.8 mph - N/A   Overcast
1:12 AM 18.3 °F 11.5 °F 9.1 °F 67% 30.02 in 10.0 mi NNE 4.6 mph - N/A   Overcast
1:32 AM 18.3 °F 10.2 °F 9.1 °F 67% 30.02 in 10.0 mi NE 5.8 mph - N/A   Overcast
1:52 AM 18.3 °F 11.5 °F 9.0 °F 67% 30.01 in 10.0 mi NE 4.6 mph - N/A   Overcast
2:12 AM 18.3 °F 13.1 °F 9.3 °F 68% 30.01 in 10.0 mi ENE 3.5 mph - N/A   Overcast
2:32 AM 18.3 °F - 9.3 °F 68% 30.02 in 10.0 mi Calm Calm - N/A   Overcast
2:52 AM 18.3 °F 10.2 °F 9.3 °F 68% 30.02 in 10.0 mi NNE 5.8 mph - N/A   Overcast
3:12 AM 18.3 °F 10.2 °F 9.5 °F 68% 30.01 in 10.0 mi North 5.8 mph - N/A   Overcast
3:32 AM 18.1 °F 10.0 °F 9.9 °F 70% 30.01 in 10.0 mi NNE 5.8 mph - N/A   Overcast
3:52 AM 18.1 °F 10.0 °F 9.7 °F 70% 30.01 in 10.0 mi NNE 5.8 mph - N/A   Overcast
4:12 AM 18.3 °F 10.2 °F 10.0 °F 70% 30.01 in 10.0 mi North 5.8 mph - N/A   Overcast
4:32 AM 18.3 °F 9.1 °F 10.4 °F 71% 30.01 in 10.0 mi North 6.9 mph - N/A   Overcast
4:52 AM 18.3 °F 8.2 °F 10.0 °F 70% 30.01 in 10.0 mi North 8.1 mph - N/A   Overcast
5:12 AM 18.3 °F 9.1 °F 10.2 °F 71% 30.01 in 10.0 mi North 6.9 mph - N/A   Overcast
5:32 AM 18.1 °F 7.9 °F 10.2 °F 71% 30.01 in 10.0 mi North 8.1 mph - N/A   Overcast
6:12 AM 17.6 °F 5.0 °F 9.5 °F 71% 30.02 in 10.0 mi North 11.5 mph - N/A   Overcast
6:32 AM 17.4 °F 6.2 °F 10.4 °F 74% 30.02 in 5.0 mi North 9.2 mph - N/A Snow Light Snow
6:52 AM 16.5 °F 6.0 °F 11.3 °F 80% 30.03 in 4.0 mi North 8.1 mph - N/A Snow Light Snow
7:12 AM 16.2 °F 5.5 °F 11.3 °F 81% 30.03 in 3.0 mi North 8.1 mph - N/A Snow Light Snow
7:32 AM 15.8 °F 5.1 °F 11.3 °F 82% 30.03 in 2.5 mi North 8.1 mph - N/A Snow Light Snow
7:52 AM 15.8 °F 6.1 °F 11.3 °F 82% 30.04 in 4.0 mi North 6.9 mph - N/A Snow Light Snow
8:12 AM 15.8 °F 6.1 °F 11.1 °F 82% 30.04 in 3.0 mi North 6.9 mph - N/A Snow Light Snow
8:32 AM 15.8 °F 4.2 °F 10.8 °F 80% 30.04 in 2.5 mi North 9.2 mph - N/A Snow Light Snow
8:52 AM 15.8 °F 6.1 °F 10.6 °F 80% 30.05 in 3.0 mi North 6.9 mph - N/A Snow Light Snow
9:12 AM 15.8 °F 5.1 °F 10.4 °F 79% 30.05 in 5.0 mi North 8.1 mph - N/A   Haze
9:32 AM 15.8 °F 5.1 °F 9.5 °F 76% 30.06 in 10.0 mi North 8.1 mph - N/A   Mostly Cloudy
9:52 AM 16.5 °F 6.0 °F 9.3 °F 73% 30.07 in 10.0 mi North 8.1 mph - N/A   Overcast
10:12 AM 16.5 °F 9.4 °F 8.8 °F 72% 30.07 in 10.0 mi North 4.6 mph - N/A   Overcast
10:32 AM 17.1 °F 6.6 °F 8.8 °F 70% 30.08 in 10.0 mi North 8.1 mph - N/A   Overcast
10:52 AM 17.1 °F 7.6 °F 8.6 °F 69% 30.08 in 10.0 mi North 6.9 mph - N/A   Overcast
11:12 AM 17.6 °F 9.3 °F 8.6 °F 68% 30.09 in 10.0 mi North 5.8 mph - N/A   Overcast
11:32 AM 18.3 °F 10.2 °F 8.8 °F 66% 30.08 in 10.0 mi North 5.8 mph - N/A   Overcast
11:52 AM 19.0 °F 7.5 °F 9.0 °F 65% 30.09 in 10.0 mi NNW 10.4 mph - N/A   Overcast
12:12 PM 19.4 °F 7.9 °F 9.5 °F 65% 30.09 in 10.0 mi NNW 10.4 mph - N/A   Overcast
12:32 PM 18.7 °F 7.0 °F 9.0 °F 66% 30.09 in 10.0 mi NW 10.4 mph - N/A   Overcast
12:52 PM 18.3 °F 7.3 °F 9.1 °F 67% 30.09 in 10.0 mi North 9.2 mph - N/A   Mostly Cloudy
1:12 PM 19.4 °F 7.9 °F 9.5 °F 65% 30.08 in 10.0 mi North 10.4 mph - N/A   Scattered Clouds
1:32 PM 19.4 °F 7.2 °F 9.7 °F 66% 30.08 in 10.0 mi North 11.5 mph - N/A   Clear
1:52 PM 19.0 °F 7.5 °F 9.1 °F 65% 30.08 in 10.0 mi North 10.4 mph - N/A   Clear
2:12 PM 18.5 °F 6.8 °F 7.9 °F 63% 30.09 in 10.0 mi NNW 10.4 mph - N/A   Clear
2:32 PM 19.0 °F 8.2 °F 6.8 °F 59% 30.09 in 10.0 mi North 9.2 mph - N/A   Clear
2:52 PM 18.7 °F 7.8 °F 5.2 °F 56% 30.09 in 10.0 mi North 9.2 mph - N/A   Clear
3:12 PM 18.3 °F 8.2 °F 3.6 °F 53% 30.09 in 10.0 mi NNW 8.1 mph - N/A   Clear
3:32 PM 18.3 °F 9.1 °F 3.9 °F 53% 30.09 in 10.0 mi North 6.9 mph - N/A   Clear
3:52 PM 18.3 °F 7.3 °F 3.9 °F 53% 30.10 in 10.0 mi North 9.2 mph - N/A   Clear
4:12 PM 17.6 °F 7.3 °F 3.7 °F 55% 30.11 in 10.0 mi North 8.1 mph - N/A   Clear
4:32 PM 16.9 °F 6.4 °F 3.7 °F 56% 30.12 in 10.0 mi NNW 8.1 mph - N/A   Clear
4:52 PM 16.0 °F 4.4 °F 3.0 °F 57% 30.13 in 10.0 mi NW 9.2 mph - N/A   Clear
5:12 PM 15.8 °F 4.2 °F 2.7 °F 56% 30.14 in 10.0 mi NNW 9.2 mph - N/A   Clear
5:32 PM 15.4 °F 5.6 °F 1.9 °F 55% 30.15 in 10.0 mi North 6.9 mph 10.4 mph N/A   Clear
5:52 PM 14.9 °F 3.1 °F 1.8 °F 56% 30.15 in 10.0 mi NNW 9.2 mph - N/A   Clear
6:12 PM 14.4 °F 5.5 °F 1.8 °F 57% 30.17 in 10.0 mi NNW 5.8 mph - N/A   Clear
6:32 PM 14.0 °F 2.9 °F 1.4 °F 57% 30.18 in 10.0 mi North 8.1 mph - N/A   Clear
6:52 PM 13.1 °F 1.8 °F 1.6 °F 60% 30.19 in 10.0 mi NNW 8.1 mph - N/A   Clear
7:12 PM 13.1 °F 1.8 °F 1.8 °F 61% 30.19 in 10.0 mi North 8.1 mph - N/A   Clear
7:32 PM 12.4 °F -1.6 °F 1.9 °F 63% 30.20 in 10.0 mi North 11.5 mph - N/A   Clear
7:52 PM 12.2 °F -0.2 °F 2.1 °F 64% 30.22 in 10.0 mi NNW 9.2 mph - N/A   Clear
8:12 PM 11.7 °F 1.1 °F 2.1 °F 66% 30.23 in 10.0 mi NNW 6.9 mph - N/A   Clear
8:32 PM 11.3 °F 0.7 °F 2.3 °F 67% 30.23 in 10.0 mi NW 6.9 mph - N/A   Clear
8:52 PM 10.4 °F -0.4 °F 2.1 °F 69% 30.24 in 10.0 mi NNW 6.9 mph - N/A   Clear
9:12 PM 10.4 °F -0.4 °F 2.3 °F 70% 30.25 in 10.0 mi NNW 6.9 mph - N/A   Clear
9:32 PM 10.0 °F -0.9 °F 2.1 °F 70% 30.26 in 10.0 mi NNW 6.9 mph - N/A   Clear
9:52 PM 10.2 °F -4.3 °F 2.3 °F 70% 30.25 in 10.0 mi North 11.5 mph - N/A   Clear
10:12 PM 9.5 °F -3.5 °F 1.9 °F 71% 30.25 in 10.0 mi North 9.2 mph - N/A   Clear
10:32 PM 9.3 °F -3.8 °F 1.8 °F 71% 30.26 in 10.0 mi NNW 9.2 mph - N/A   Clear
10:52 PM 9.1 °F -4.0 °F 1.6 °F 71% 30.27 in 10.0 mi North 9.2 mph - N/A   Clear
11:12 PM 8.8 °F -3.5 °F 1.4 °F 72% 30.27 in 10.0 mi North 8.1 mph - N/A   Clear
11:32 PM 8.2 °F -1.8 °F 1.2 °F 73% 30.27 in 10.0 mi North 5.8 mph - N/A   Clear
11:52 PM 8.1 °F -3.2 °F 1.2 °F 74% 30.28 in 10.0 mi North 6.9 mph - N/A   Clear